Location: Unspecified
(0.0000°N, 0.0000°E)
Time: 18:05:51
(UTC+00:00)

Explorer 11/Cluster Stage 4 - All Passes

Search period start: 27 February 2017 00:00
Search period end: 09 March 2017 00:00
Orbit: 467 x 1263 km, 28.8° (Epoch: 26 February)

Date Brightness Start Highest point End Pass type
(mag) Time Alt. Az. Time Alt. Az. Time Alt. Az.
27 Feb - 00:17:31 10° WSW 00:24:30 57° NNW 00:32:30 10° NE night (unlit)
27 Feb - 02:08:55 10° WNW 02:14:32 21° NNW 02:20:20 10° NNE night (unlit)
27 Feb - 09:34:35 10° NNW 09:38:48 20° NNE 09:42:26 10° ENE daylight
27 Feb - 11:22:41 10° WNW 11:27:44 88° SSW 11:31:51 10° ESE daylight
27 Feb - 13:14:15 10° SW 13:15:56 12° SSW 13:17:32 10° S daylight
27 Feb - 20:34:09 10° S 20:36:19 12° SSE 20:38:37 10° SE visible
27 Feb - 22:19:14 10° SW 22:25:10 52° SSE 22:32:23 10° ENE night (unlit)
28 Feb - 00:07:46 10° W 00:14:26 48° NNW 00:22:08 10° NE night (unlit)
28 Feb - 01:59:38 10° WNW 02:04:35 18° NNW 02:09:44 10° NNE night (unlit)
28 Feb - 09:23:58 10° NNW 09:29:00 26° NNE 09:33:12 10° E daylight
28 Feb - 11:12:38 10° WNW 11:17:51 67° SSW 11:22:04 10° SE daylight
28 Feb - 20:23:39 10° S 20:26:24 14° SSE 20:29:25 10° ESE visible
28 Feb - 22:09:18 10° SW 22:15:06 62° SSE 22:22:18 10° ENE night (unlit)
28 Feb - 23:58:07 10° W 00:04:24 40° NNW 00:11:43 10° NE night (unlit)
01 Mar - 01:50:32 10° NW 01:54:41 15° NNW 01:58:59 10° NNE night (unlit)
01 Mar - 07:26:58 10° N 07:29:10 11° NNE 07:31:16 10° NE daylight
01 Mar - 09:13:27 10° NW 09:19:09 33° NNE 09:23:49 10° E daylight
01 Mar - 11:02:36 10° WNW 11:07:57 52° SSW 11:12:14 10° SE daylight
01 Mar - 20:13:20 10° S 20:16:28 16° SSE 20:20:00 10° ESE visible
01 Mar - 21:59:25 10° SW 22:05:04 75° SSE 22:12:09 10° ENE night (unlit)
01 Mar - 23:48:33 10° W 23:54:25 33° NNW 00:01:13 10° NE night (unlit)
02 Mar - 01:41:43 10° NW 01:44:49 13° NNW 01:48:01 10° N night (unlit)
02 Mar - 07:15:39 10° NNW 07:19:23 14° NNE 07:22:48 10° NE daylight
02 Mar - 09:03:00 10° NW 09:09:16 42° NNE 09:14:19 10° E daylight
02 Mar - 10:52:38 10° WNW 10:58:00 42° SSW 11:02:20 10° SE daylight
02 Mar - 20:03:06 10° SSW 20:06:32 19° SSE 20:10:27 10° ESE visible
02 Mar - 21:49:36 10° WSW 21:55:02 90° SSE 22:01:57 10° ENE night (unlit)
02 Mar - 23:39:06 10° W 23:44:28 27° NNW 23:50:40 10° NNE night (unlit)
03 Mar - 01:33:35 10° NNW 01:35:00 11° NNW 01:36:26 10° N night (unlit)
03 Mar - 07:04:45 10° NNW 07:09:32 18° NNE 07:13:52 10° ENE daylight
03 Mar - 08:52:36 10° NW 08:59:20 53° NNE 09:04:44 10° ESE daylight
03 Mar - 10:42:42 10° W 10:48:02 34° SSW 10:52:23 10° SSE daylight
03 Mar - 19:52:58 10° SSW 19:56:35 22° SSE 20:00:48 10° E visible
03 Mar - 21:39:51 10° WSW 21:45:04 74° NNW 21:51:41 10° NE night (unlit)
03 Mar - 23:29:47 10° WNW 23:34:33 22° NNW 23:40:02 10° NNE night (unlit)
04 Mar - 06:54:00 10° NNW 06:59:39 22° NNE 07:04:42 10° ENE daylight
04 Mar - 08:42:14 10° NW 08:49:22 66° NNE 08:55:03 10° ESE daylight
04 Mar - 10:32:50 10° W 10:38:03 29° SSW 10:42:22 10° SSE daylight
04 Mar - 19:42:53 10° SSW 19:46:38 27° SSE 19:51:04 10° E visible
04 Mar - 21:30:09 10° WSW 21:35:07 58° NNW 21:41:23 10° NE visible
04 Mar - 23:20:37 10° WNW 23:24:42 18° NNW 23:29:17 10° NNE night (unlit)
05 Mar - 04:58:22 10° N 04:59:01 10° NNE 04:59:40 10° NNE visible
05 Mar - 06:43:22 10° NNW 06:49:42 26° NNE 06:55:21 10° ENE daylight
05 Mar - 08:31:56 10° NW 08:39:21 80° NNE 08:45:17 10° ESE daylight
05 Mar - 10:23:02 10° W 10:28:04 24° SSW 10:32:18 10° SSE daylight
05 Mar - 19:32:53 10° SSW 19:36:42 32° SSE 19:41:16 10° E visible
05 Mar - 21:20:33 10° W 21:25:12 45° NNW 21:31:02 10° NE visible
05 Mar - 23:11:41 10° NW 23:14:52 14° NNW 23:18:21 10° NNE night (unlit)
06 Mar - 04:46:23 10° N 04:49:11 12° NNE 04:51:57 10° NE visible
06 Mar - 06:32:48 10° NNW 06:39:44 31° NNE 06:45:53 10° E daylight
06 Mar - 08:21:41 10° WNW 08:29:17 85° SSW 08:35:27 10° ESE daylight
06 Mar - 10:13:18 10° W 10:18:04 21° SSW 10:22:10 10° SSE daylight
06 Mar - 19:22:55 10° SW 19:26:47 41° SSE 19:31:25 10° ENE visible
06 Mar - 21:11:02 10° W 21:15:21 35° NNW 21:20:38 10° NE visible
06 Mar - 23:03:19 10° NW 23:05:05 11° NNW 23:06:56 10° N night (unlit)
07 Mar - 04:35:24 10° N 04:39:19 14° NNE 04:43:10 10° NE visible
07 Mar - 06:22:18 10° NW 06:29:42 37° NNE 06:36:18 10° E daylight
07 Mar - 08:11:28 10° WNW 08:19:12 72° SSW 08:25:33 10° SE daylight
07 Mar - 10:03:40 10° WSW 10:08:04 18° SSW 10:11:57 10° S daylight
07 Mar - 19:13:01 10° SW 19:16:52 53° SSE 19:21:29 10° ENE visible
07 Mar - 21:01:37 10° W 21:05:30 27° NNW 21:10:09 10° NNE visible
08 Mar - 04:24:38 10° NNW 04:29:23 16° NNE 04:34:05 10° ENE visible
08 Mar - 06:11:52 10° NW 06:19:37 44° NNE 06:26:37 10° E daylight
08 Mar - 08:01:19 10° WNW 08:09:05 61° SSW 08:15:35 10° SE daylight
08 Mar - 09:54:06 10° WSW 09:58:06 16° SSW 10:01:40 10° S daylight
08 Mar - 19:03:10 10° SW 19:07:00 72° SSE 19:11:31 10° ENE visible
08 Mar - 20:52:20 10° WNW 20:55:41 20° NNW 20:59:34 10° NNE visible
